Weather History for Bennington, VT

Change the Weather History Date:

Saturday, May 11, 2013

  Actual Average Record
Temperature  
Mean Temperature 62 °F 54 °F  
Max Temperature 70 °F 66 °F 82 °F (2001)
Min Temperature 54 °F 42 °F 32 °F (1999)
Degree Days  
Heating Degree Days 3 11  
Month to date heating degree days 61 141  
Since 1 July heating degree days 6454 6964  
Cooling Degree Days 0 0  
Month to date cooling degree days 0 0  
Year to date cooling degree days 0 3  
Growing Degree Days 12 (Base 50)    
Moisture  
Dew Point 57 °F    
Average Humidity 70    
Maximum Humidity 87    
Minimum Humidity 53    
Precipitation  
Precipitation 0.33 in 0.10 in 0.56 in (2003)
Month to date precipitation 0.50 1.11  
Year to date precipitation 7.81 12.52  
Sea Level Pressure  
Sea Level Pressure 29.72 in    
Wind  
Wind Speed 6 mph (SSW)    
Max Wind Speed 18 mph    
Max Gust Speed 29 mph    
Visibility 8 miles    
Events Rain    
T = Trace of Precipitation, MM = Missing Value Source: NWS Daily Summary

Daily Weather History Graph

Daily Weather History Graph

Search for Another Location

Airport:

Trip Planner

Search our weather history database for the weather conditions in past years. The results will help you decide how hot, cold, wet, or windy it might be!

Date:

Astronomy

May. 11, 2013 Rise Set
Actual Time 5:34 AM EDT 8:05 PM EDT
Civil Twilight 5:02 AM EDT 8:37 PM EDT
Nautical Twilight 4:22 AM EDT 9:17 PM EDT
Astronomical Twilight 3:36 AM EDT 10:03 PM EDT
Moon 6:39 AM EDT (5/11) 9:44 PM EDT (5/11)
Length of Visible Light 15h 35m
Length of Day
14h 31m
Waxing Crescent, 3% of the Moon is Illuminated
May 11
Waxing Crescent
May 18
First Quarter
May 25
Full
May 31
Last Quarter
Jun 8
New

Hourly Weather History & Observations

Time (EDT) Temp. Dew Point Humidity Pressure Visibility Wind Dir Wind Speed Gust Speed Precip Events Conditions
12:54 AM 69.1 °F 51.1 °F 53% 29.81 in 10.0 mi South 11.5 mph 17.3 mph N/A   Mostly Cloudy
1:54 AM 69.1 °F 52.0 °F 54% 29.81 in 10.0 mi SSW 11.5 mph 20.7 mph N/A   Scattered Clouds
2:54 AM 66.9 °F 53.1 °F 61% 29.79 in 10.0 mi Calm Calm - N/A   Overcast
3:54 AM 64.9 °F 54.0 °F 68% 29.78 in 10.0 mi South 6.9 mph - 0.00 in Rain Light Rain
4:54 AM 62.1 °F 55.9 °F 80% 29.74 in 10.0 mi Variable 4.6 mph - 0.01 in Rain Light Rain
5:54 AM 62.1 °F 55.9 °F 80% 29.74 in 10.0 mi Variable 6.9 mph - 0.02 in Rain Light Rain
6:54 AM 62.1 °F 55.9 °F 80% 29.74 in 10.0 mi South 9.2 mph - 0.01 in   Overcast
7:54 AM 64.0 °F 55.9 °F 75% 29.73 in 10.0 mi SSW 13.8 mph 21.9 mph N/A   Overcast
8:54 AM 64.9 °F 55.9 °F 73% 29.73 in 10.0 mi South 6.9 mph - N/A   Overcast
9:35 AM 66.2 °F 57.2 °F 73% 29.73 in 10.0 mi South 9.2 mph - N/A   Overcast
9:54 AM 64.9 °F 57.0 °F 75% 29.72 in 10.0 mi South 6.9 mph 18.4 mph N/A   Overcast
10:32 AM 66.2 °F 57.2 °F 73% 29.72 in 10.0 mi SSW 15.0 mph 19.6 mph N/A   Overcast
10:54 AM 66.0 °F 57.9 °F 75% 29.70 in 10.0 mi South 9.2 mph 21.9 mph N/A   Overcast
11:54 AM 66.0 °F 57.9 °F 75% 29.70 in 10.0 mi South 12.7 mph 19.6 mph N/A   Overcast
12:37 PM 64.4 °F 59.0 °F 83% 29.71 in 2.0 mi Variable 6.9 mph - 0.05 in Rain Light Rain
12:46 PM 64.4 °F 59.0 °F 83% 29.71 in 5.0 mi SSW 8.1 mph - 0.06 in Rain Light Rain
12:54 PM 64.9 °F 60.1 °F 84% 29.70 in 5.0 mi SSW 6.9 mph - 0.07 in Rain Light Rain
1:29 PM 64.4 °F 60.8 °F 88% 29.71 in 1.5 mi SSW 6.9 mph 16.1 mph 0.08 in Rain Rain
1:40 PM 64.4 °F 60.8 °F 88% 29.70 in 4.0 mi South 5.8 mph - 0.09 in Rain Light Rain
1:54 PM 68.0 °F 62.1 °F 81% 29.68 in 10.0 mi South 6.9 mph - 0.09 in   Overcast
2:54 PM 68.0 °F 59.0 °F 73% 29.66 in 10.0 mi South 6.9 mph - 0.01 in   Mostly Cloudy
3:54 PM 66.0 °F 57.9 °F 75% 29.67 in 8.0 mi SSW 5.8 mph - 0.00 in Rain Light Rain
4:54 PM 66.0 °F 59.0 °F 78% 29.66 in 10.0 mi SSE 8.1 mph - 0.01 in Rain Light Rain
5:54 PM 64.0 °F 57.0 °F 78% 29.67 in 9.0 mi South 6.9 mph - 0.03 in Rain Light Rain
6:03 PM 62.6 °F 57.2 °F 82% 29.69 in 1.8 mi West 8.1 mph - 0.05 in Rain Rain
6:14 PM 62.6 °F 59.0 °F 88% 29.69 in 2.0 mi West 6.9 mph - 0.08 in Rain Light Rain
6:21 PM 62.6 °F 57.2 °F 82% 29.70 in 10.0 mi West 6.9 mph - 0.08 in   Overcast
6:50 PM 60.8 °F 57.2 °F 88% 29.71 in 10.0 mi West 6.9 mph - 0.08 in   Overcast
6:54 PM 61.0 °F 57.0 °F 87% 29.71 in 10.0 mi WSW 4.6 mph - 0.08 in   Overcast
7:54 PM 59.0 °F 55.0 °F 87% 29.71 in 10.0 mi Calm Calm - N/A   Mostly Cloudy
8:12 PM 57.2 °F 55.4 °F 94% 29.71 in 10.0 mi Calm Calm - N/A   Mostly Cloudy
8:54 PM 57.9 °F 54.0 °F 87% 29.71 in 10.0 mi Calm Calm - N/A   Overcast
10:15 PM 55.4 °F 51.8 °F 88% 29.72 in 10.0 mi Calm Calm - N/A   Overcast
10:54 PM 55.9 °F 51.1 °F 84% 29.72 in 10.0 mi Calm Calm - N/A   Overcast
11:54 PM 55.0 °F 51.1 °F 86% 29.71 in 10.0 mi Calm Calm - N/A   Overcast